| time (UTC) | temp F | wind direction | speed MPH | gust MPH | rain 1hr in | rain 24hr in | rain mn in | humidity % | barometer mb |
| 20260901124536 | 71 | 0 | 0.0 | 0.0 | 0.00 | 0.24 | 0.00 | 95 | 1015.7 |
| 20260901124018 | 70 | 0 | 0.0 | 0.0 | 0.00 | 0.24 | 0.00 | 95 | 1015.7 |
| 20260901123518 | 70 | 0 | 0.0 | 0.0 | 0.00 | 0.24 | 0.00 | 95 | 1015.7 |
| 20260901123039 | 70 | 0 | 0.0 | 0.0 | 0.00 | 0.24 | 0.00 | 95 | 1015.7 |
| 20260901122518 | 70 | 0 | 0.0 | 0.0 | 0.00 | 0.24 | 0.00 | 95 | 1015.5 |
| 20260901122019 | 69 | 0 | 0.0 | 0.0 | 0.00 | 0.24 | 0.00 | 95 | 1015.5 |
| 20260901121537 | 69 | 0 | 0.0 | 0.0 | 0.00 | 0.24 | 0.00 | 95 | 1015.6 |
| 20260901121019 | 69 | 0 | 0.0 | 0.0 | 0.00 | 0.24 | 0.00 | 94 | 1015.4 |
| 20260901120516 | 69 | 0 | 0.0 | 0.0 | 0.00 | 0.24 | 0.00 | 94 | 1015.4 |
| 20260901120034 | 69 | 0 | 0.0 | 0.0 | 0.00 | 0.24 | 0.00 | 94 | 1015.4 |
| 20260901115517 | 68 | 0 | 0.0 | 0.0 | 0.00 | 0.36 | 0.00 | 94 | 1015.3 |
| 20260901115019 | 68 | 0 | 0.0 | 0.0 | 0.00 | 0.36 | 0.00 | 94 | 1015.3 |
| 20260901114541 | 68 | 0 | 0.0 | 0.0 | 0.00 | 0.36 | 0.00 | 94 | 1015.2 |
| 20260901114019 | 68 | 0 | 0.0 | 0.0 | 0.00 | 0.36 | 0.00 | 93 | 1015.2 |
| 20260901113519 | 68 | 0 | 0.0 | 0.0 | 0.00 | 0.36 | 0.00 | 93 | 1015.1 |
| 20260901113033 | 68 | 0 | 0.0 | 0.0 | 0.00 | 0.36 | 0.00 | 93 | 1015.1 |
| 20260901112515 | 68 | 0 | 0.0 | 0.0 | 0.00 | 0.36 | 0.00 | 93 | 1015.1 |
| 20260901112021 | 68 | 0 | 0.0 | 0.0 | 0.00 | 0.36 | 0.00 | 93 | 1014.9 |
| 20260901111540 | 68 | 0 | 0.0 | 0.0 | 0.00 | 0.36 | 0.00 | 93 | 1015.0 |
| 20260901111015 | 68 | 0 | 0.0 | 0.0 | 0.00 | 0.36 | 0.00 | 93 | 1015.0 |
| 20260901110515 | 68 | 0 | 0.0 | 0.0 | 0.00 | 0.36 | 0.00 | 93 | 1014.9 |
| 20260901110036 | 68 | 0 | 0.0 | 0.0 | 0.00 | 0.36 | 0.00 | 92 | 1014.9 |
| 20260901105520 | 68 | 0 | 0.0 | 0.0 | 0.00 | 0.77 | 0.00 | 92 | 1014.9 |
| 20260901105017 | 68 | 0 | 0.0 | 0.0 | 0.00 | 0.77 | 0.00 | 92 | 1014.9 |
| 20260901104547 | 68 | 0 | 0.0 | 0.0 | 0.00 | 0.77 | 0.00 | 92 | 1014.8 |
| 20260901104022 | 68 | 0 | 0.0 | 0.0 | 0.00 | 0.77 | 0.00 | 92 | 1014.7 |
| 20260901103522 | 68 | 0 | 0.0 | 0.0 | 0.00 | 0.77 | 0.00 | 92 | 1014.8 |
| 20260901103040 | 68 | 0 | 0.0 | 0.0 | 0.00 | 0.77 | 0.00 | 92 | 1014.7 |
| 20260901102517 | 69 | 0 | 0.0 | 0.0 | 0.00 | 0.77 | 0.00 | 92 | 1014.7 |
| 20260901102015 | 69 | 0 | 0.0 | 0.0 | 0.00 | 0.77 | 0.00 | 92 | 1014.6 |
| 20260901101539 | 69 | 0 | 0.0 | 0.0 | 0.00 | 0.77 | 0.00 | 92 | 1014.6 |
| 20260901101019 | 69 | 0 | 0.0 | 0.0 | 0.00 | 0.77 | 0.00 | 92 | 1014.6 |
| 20260901100520 | 69 | 0 | 0.0 | 0.0 | 0.00 | 0.77 | 0.00 | 92 | 1014.5 |
| 20260901100044 | 69 | 0 | 0.0 | 0.0 | 0.00 | 0.77 | 0.00 | 92 | 1014.5 |
| 20260901095518 | 69 | 0 | 0.0 | 0.0 | 0.00 | 0.78 | 0.00 | 92 | 1014.5 |
| 20260901095019 | 69 | 0 | 0.0 | 0.0 | 0.00 | 0.78 | 0.00 | 91 | 1014.6 |
| 20260901094539 | 69 | 0 | 0.0 | 0.0 | 0.00 | 0.78 | 0.00 | 91 | 1014.6 |
| 20260901094018 | 69 | 0 | 0.0 | 0.0 | 0.00 | 0.78 | 0.00 | 91 | 1014.5 |
| 20260901093519 | 69 | 0 | 0.0 | 0.0 | 0.00 | 0.78 | 0.00 | 91 | 1014.5 |
| 20260901093039 | 70 | 0 | 0.0 | 0.0 | 0.00 | 0.78 | 0.00 | 91 | 1014.5 |
| 20260901092517 | 70 | 0 | 0.0 | 0.0 | 0.00 | 0.78 | 0.00 | 91 | 1014.5 |
| 20260901092016 | 70 | 0 | 0.0 | 0.0 | 0.00 | 0.78 | 0.00 | 91 | 1014.4 |
| 20260901091535 | 70 | 0 | 0.0 | 0.0 | 0.00 | 0.78 | 0.00 | 91 | 1014.3 |
| 20260901091020 | 70 | 0 | 0.0 | 0.0 | 0.00 | 0.78 | 0.00 | 91 | 1014.3 |
| 20260901090519 | 70 | 0 | 0.0 | 0.0 | 0.00 | 0.78 | 0.00 | 91 | 1014.2 |
| 20260901090036 | 70 | 0 | 0.0 | 0.0 | 0.00 | 0.78 | 0.00 | 91 | 1014.3 |
| 20260901085519 | 70 | 0 | 0.0 | 0.0 | 0.00 | 0.78 | 0.00 | 90 | 1014.2 |
| 20260901085017 | 70 | 0 | 0.0 | 0.0 | 0.00 | 0.78 | 0.00 | 91 | 1014.2 |
| 20260901084553 | 70 | 0 | 0.0 | 0.0 | 0.00 | 0.78 | 0.00 | 90 | 1014.2 |
| 20260901084019 | 70 | 0 | 0.0 | 0.0 | 0.00 | 0.78 | 0.00 | 90 | 1014.1 |
| 20260901083519 | 70 | 0 | 0.0 | 0.0 | 0.00 | 0.78 | 0.00 | 90 | 1014.1 |
| 20260901083036 | 70 | 0 | 0.0 | 0.0 | 0.00 | 0.78 | 0.00 | 90 | 1014.0 |
| 20260901082516 | 70 | 0 | 0.0 | 0.0 | 0.00 | 0.78 | 0.00 | 90 | 1014.1 |
| 20260901082020 | 70 | 0 | 0.0 | 0.0 | 0.00 | 0.78 | 0.00 | 90 | 1014.1 |
| 20260901081537 | 70 | 0 | 0.0 | 0.0 | 0.00 | 0.78 | 0.00 | 91 | 1014.0 |
| 20260901081017 | 70 | 0 | 0.0 | 0.0 | 0.00 | 0.78 | 0.00 | 91 | 1014.0 |
| 20260901080517 | 70 | 0 | 0.0 | 0.0 | 0.00 | 0.78 | 0.00 | 91 | 1014.1 |
| 20260901080042 | 70 | 0 | 0.0 | 0.0 | 0.00 | 0.78 | 0.00 | 91 | 1014.1 |
| 20260901075520 | 70 | 0 | 0.0 | 0.0 | 0.00 | 0.81 | 0.00 | 90 | 1014.1 |
| 20260901075018 | 70 | 0 | 0.0 | 0.0 | 0.00 | 0.81 | 0.00 | 90 | 1014.1 |
| 20260901074552 | 70 | 0 | 0.0 | 0.0 | 0.00 | 0.81 | 0.00 | 90 | 1014.1 |
| 20260901074019 | 70 | 0 | 0.0 | 0.0 | 0.00 | 0.81 | 0.00 | 90 | 1014.1 |
| 20260901073517 | 70 | 0 | 0.0 | 0.0 | 0.00 | 0.81 | 0.00 | 89 | 1014.2 |
| 20260901073034 | 70 | 0 | 0.0 | 0.0 | 0.00 | 0.81 | 0.00 | 89 | 1014.1 |
| 20260901072518 | 70 | 0 | 0.0 | 0.0 | 0.00 | 0.81 | 0.00 | 89 | 1014.1 |
| 20260901072018 | 70 | 0 | 0.0 | 0.0 | 0.00 | 0.81 | 0.00 | 89 | 1014.1 |
| 20260901071537 | 70 | 0 | 0.0 | 0.0 | 0.00 | 0.81 | 0.00 | 88 | 1014.1 |
| 20260901071018 | 70 | 0 | 0.0 | 0.0 | 0.00 | 0.81 | 0.00 | 88 | 1014.1 |
| 20260901070517 | 71 | 0 | 0.0 | 0.0 | 0.00 | 0.81 | 0.00 | 87 | 1014.1 |
| 20260901070040 | 71 | 0 | 0.0 | 0.0 | 0.00 | 0.81 | 0.00 | 87 | 1014.1 |
| 20260901065518 | 71 | 0 | 0.0 | 0.0 | 0.00 | 0.92 | 0.00 | 87 | 1014.1 |
| 20260901065022 | 71 | 0 | 0.0 | 0.0 | 0.00 | 0.92 | 0.00 | 86 | 1014.2 |
| 20260901064542 | 71 | 0 | 0.0 | 0.0 | 0.00 | 0.92 | 0.00 | 86 | 1014.3 |
| 20260901064017 | 71 | 0 | 0.0 | 0.0 | 0.00 | 0.92 | 0.00 | 86 | 1014.3 |
| 20260901063517 | 71 | 0 | 0.0 | 0.0 | 0.00 | 0.92 | 0.00 | 86 | 1014.4 |
| 20260901063049 | 71 | 0 | 0.0 | 0.0 | 0.00 | 0.92 | 0.00 | 86 | 1014.4 |
| 20260901062516 | 71 | 0 | 0.0 | 0.0 | 0.00 | 0.92 | 0.00 | 86 | 1014.6 |
| 20260901062018 | 71 | 0 | 0.0 | 0.0 | 0.00 | 0.92 | 0.00 | 86 | 1014.5 |
| 20260901061536 | 71 | 0 | 0.0 | 0.0 | 0.00 | 0.92 | 0.00 | 86 | 1014.4 |
| 20260901061018 | 71 | 0 | 0.0 | 0.0 | 0.00 | 0.92 | 0.00 | 86 | 1014.5 |
| 20260901060520 | 71 | 0 | 0.0 | 2.0 | 0.00 | 0.92 | 0.00 | 87 | 1014.6 |
| 20260901060038 | 71 | 0 | 0.0 | 2.0 | 0.00 | 0.92 | 0.00 | 88 | 1014.6 |
| 20260901055518 | 71 | 0 | 0.0 | 0.0 | 0.00 | 0.92 | 0.00 | 87 | 1014.7 |
| 20260901055017 | 70 | 0 | 0.0 | 0.0 | 0.00 | 0.92 | 0.00 | 88 | 1015.0 |
| 20260901054535 | 70 | 0 | 0.0 | 0.0 | 0.00 | 0.92 | 0.00 | 88 | 1015.0 |
| 20260901054018 | 70 | 0 | 0.0 | 0.0 | 0.00 | 0.92 | 0.00 | 89 | 1014.9 |
| 20260901053518 | 70 | 0 | 0.0 | 0.0 | 0.00 | 0.92 | 0.00 | 89 | 1015.0 |
| 20260901053050 | 70 | 0 | 0.0 | 0.0 | 0.00 | 0.92 | 0.00 | 89 | 1015.0 |
| 20260901052520 | 70 | 0 | 0.0 | 0.0 | 0.00 | 0.92 | 0.00 | 90 | 1015.1 |
| 20260901052017 | 70 | 0 | 0.0 | 0.0 | 0.00 | 0.92 | 0.00 | 90 | 1015.1 |
| 20260901051538 | 70 | 0 | 0.0 | 0.0 | 0.00 | 0.92 | 0.00 | 90 | 1015.0 |
| 20260901051020 | 70 | 0 | 0.0 | 0.0 | 0.00 | 0.92 | 0.00 | 90 | 1015.1 |
| 20260901050517 | 70 | 0 | 0.0 | 0.0 | 0.00 | 0.92 | 0.00 | 90 | 1015.0 |
| 20260901050034 | 70 | 0 | 0.0 | 0.0 | 0.00 | 0.92 | 0.00 | 90 | 1015.0 |
| 20260901045516 | 70 | 0 | 0.0 | 0.0 | 0.00 | 0.92 | 0.00 | 90 | 1015.1 |
| 20260901045015 | 70 | 0 | 0.0 | 0.0 | 0.00 | 0.92 | 0.00 | 90 | 1015.1 |
| 20260901044541 | 70 | 0 | 0.0 | 0.0 | 0.00 | 0.92 | 0.00 | 90 | 1015.0 |
| 20260901044017 | 70 | 0 | 0.0 | 0.0 | 0.00 | 0.92 | 0.00 | 90 | 1015.0 |
| 20260901043518 | 70 | 0 | 0.0 | 0.0 | 0.00 | 0.92 | 0.00 | 90 | 1015.2 |
| 20260901043045 | 70 | 0 | 0.0 | 0.0 | 0.00 | 0.92 | 0.00 | 90 | 1015.0 |
| 20260901042515 | 70 | 0 | 0.0 | 0.0 | 0.00 | 0.92 | 0.00 | 90 | 1015.1 |
| 20260901042020 | 70 | 0 | 0.0 | 0.0 | 0.00 | 0.92 | 0.00 | 90 | 1015.2 |
| 20260901041537 | 70 | 0 | 0.0 | 0.0 | 0.00 | 0.92 | 0.00 | 90 | 1015.1 |
| 20260901041018 | 70 | 0 | 0.0 | 0.0 | 0.00 | 0.92 | 0.00 | 90 | 1015.2 |
| 20260901040519 | 70 | 0 | 0.0 | 0.0 | 0.00 | 0.92 | 0.00 | 90 | 1015.3 |
| 20260901040034 | 70 | 0 | 0.0 | 0.0 | 0.00 | 0.92 | 0.00 | 90 | 1015.4 |
| 20260901035520 | 70 | 0 | 0.0 | 0.0 | 0.00 | 0.92 | 0.92 | 90 | 1015.5 |
| 20260901035020 | 70 | 0 | 0.0 | 0.0 | 0.00 | 0.92 | 0.92 | 91 | 1015.4 |
| 20260901034539 | 70 | 0 | 0.0 | 0.0 | 0.00 | 0.92 | 0.92 | 91 | 1015.5 |
| 20260901034018 | 70 | 0 | 0.0 | 0.0 | 0.00 | 0.92 | 0.92 | 90 | 1015.6 |
| 20260901033518 | 70 | 0 | 0.0 | 0.0 | 0.00 | 0.92 | 0.92 | 90 | 1015.7 |
| 20260901033048 | 71 | 0 | 0.0 | 0.0 | 0.00 | 0.92 | 0.92 | 90 | 1015.7 |
| 20260901032518 | 71 | 0 | 0.0 | 0.0 | 0.00 | 0.92 | 0.92 | 90 | 1015.7 |
| 20260901032020 | 71 | 0 | 0.0 | 0.0 | 0.00 | 0.92 | 0.92 | 90 | 1015.7 |
| 20260901031541 | 71 | 0 | 0.0 | 1.0 | 0.00 | 0.92 | 0.92 | 90 | 1015.7 |
| 20260901031017 | 71 | 0 | 0.0 | 1.0 | 0.00 | 0.92 | 0.92 | 90 | 1015.8 |
| 20260901030517 | 71 | 0 | 0.0 | 1.0 | 0.00 | 0.92 | 0.92 | 90 | 1015.7 |
| 20260901030034 | 71 | 0 | 0.0 | 0.0 | 0.00 | 0.92 | 0.92 | 90 | 1015.7 |
| 20260901025516 | 71 | 0 | 0.0 | 0.0 | 0.00 | 0.92 | 0.92 | 90 | 1015.7 |
| 20260901025017 | 71 | 0 | 0.0 | 0.0 | 0.00 | 0.92 | 0.92 | 90 | 1015.7 |
| 20260901024536 | 71 | 0 | 0.0 | 0.0 | 0.00 | 0.92 | 0.92 | 90 | 1015.7 |
| 20260901024019 | 71 | 0 | 0.0 | 0.0 | 0.00 | 0.92 | 0.92 | 90 | 1015.7 |
| 20260901023522 | 71 | 0 | 0.0 | 0.0 | 0.00 | 0.92 | 0.92 | 90 | 1015.6 |
| 20260901023048 | 71 | 0 | 0.0 | 0.0 | 0.00 | 0.92 | 0.92 | 89 | 1015.5 |
| 20260901022519 | 71 | 0 | 0.0 | 0.0 | 0.00 | 0.92 | 0.92 | 89 | 1015.5 |
| 20260901022017 | 71 | 0 | 0.0 | 0.0 | 0.00 | 0.92 | 0.92 | 89 | 1015.6 |
| 20260901021543 | 71 | 0 | 0.0 | 0.0 | 0.00 | 0.92 | 0.92 | 89 | 1015.6 |
| 20260901021019 | 71 | 0 | 0.0 | 1.0 | 0.00 | 0.92 | 0.92 | 90 | 1015.7 |
| 20260901020520 | 71 | 0 | 0.0 | 1.0 | 0.00 | 0.92 | 0.92 | 90 | 1015.6 |
| 20260901020041 | 71 | 0 | 0.0 | 1.0 | 0.00 | 0.92 | 0.92 | 90 | 1015.5 |
| 20260901015520 | 71 | 0 | 0.0 | 0.0 | 0.00 | 0.95 | 0.92 | 90 | 1015.6 |
| 20260901015017 | 71 | 0 | 0.0 | 0.0 | 0.00 | 0.95 | 0.92 | 90 | 1015.7 |
| 20260901014539 | 71 | 0 | 0.0 | 0.0 | 0.00 | 0.95 | 0.92 | 90 | 1015.7 |
| 20260901014019 | 71 | 0 | 0.0 | 0.0 | 0.00 | 0.95 | 0.92 | 90 | 1015.7 |
| 20260901013517 | 71 | 0 | 0.0 | 0.0 | 0.00 | 0.95 | 0.92 | 90 | 1015.7 |
| 20260901013040 | 71 | 0 | 0.0 | 0.0 | 0.00 | 0.95 | 0.92 | 90 | 1015.6 |
| 20260901012517 | 71 | 0 | 0.0 | 0.0 | 0.00 | 0.95 | 0.92 | 90 | 1015.6 |
| 20260901012015 | 71 | 0 | 0.0 | 0.0 | 0.00 | 0.95 | 0.92 | 90 | 1015.7 |
| 20260901011536 | 72 | 0 | 0.0 | 0.0 | 0.00 | 0.95 | 0.92 | 90 | 1015.7 |
| 20260901011019 | 72 | 0 | 0.0 | 0.0 | 0.00 | 0.95 | 0.92 | 90 | 1015.7 |
| 20260901010521 | 72 | 0 | 0.0 | 0.0 | 0.00 | 0.95 | 0.92 | 90 | 1015.7 |
| 20260901010038 | 72 | 0 | 0.0 | 1.0 | 0.00 | 0.95 | 0.92 | 90 | 1015.7 |
| 20260901005523 | 72 | 0 | 0.0 | 1.0 | 0.00 | 1.11 | 0.92 | 90 | 1015.6 |
| 20260901005020 | 72 | 0 | 0.0 | 0.0 | 0.00 | 1.11 | 0.92 | 90 | 1015.7 |
| 20260901004538 | 72 | 0 | 0.0 | 2.0 | 0.00 | 1.11 | 0.92 | 90 | 1015.7 |
| 20260901004018 | 72 | 0 | 0.0 | 2.0 | 0.00 | 1.11 | 0.92 | 90 | 1015.6 |
| 20260901003518 | 72 | 0 | 0.0 | 2.0 | 0.00 | 1.11 | 0.92 | 90 | 1015.6 |
| 20260901003038 | 72 | 0 | 0.0 | 1.0 | 0.00 | 1.11 | 0.92 | 91 | 1015.6 |
| 20260901002516 | 72 | 0 | 0.0 | 1.0 | 0.00 | 1.11 | 0.92 | 91 | 1015.7 |
| 20260901002018 | 72 | 0 | 0.0 | 1.0 | 0.00 | 1.11 | 0.92 | 91 | 1015.8 |
| 20260901001543 | 72 | 0 | 0.0 | 3.0 | 0.00 | 1.11 | 0.92 | 91 | 1015.8 |
| 20260901001018 | 73 | 0 | 0.0 | 3.0 | 0.00 | 1.11 | 0.92 | 91 | 1015.9 |
| 20260901000518 | 73 | 0 | 0.0 | 2.0 | 0.00 | 1.11 | 0.92 | 91 | 1016.0 |
| 20260901000044 | 73 | 0 | 0.0 | 1.0 | 0.00 | 1.11 | 0.92 | 91 | 1016.1 |
| 20260831235523 | 73 | 0 | 0.0 | 1.0 | 0.00 | 1.14 | 0.92 | 91 | 1016.1 |
| 20260831235018 | 73 | 0 | 0.0 | 1.0 | 0.00 | 1.14 | 0.92 | 91 | 1016.0 |
| 20260831234535 | 73 | 0 | 0.0 | 0.0 | 0.00 | 1.14 | 0.92 | 91 | 1016.1 |
| 20260831234017 | 73 | 0 | 0.0 | 0.0 | 0.00 | 1.14 | 0.92 | 91 | 1016.2 |
| 20260831233519 | 73 | 0 | 0.0 | 1.0 | 0.00 | 1.14 | 0.92 | 91 | 1016.2 |
| 20260831233036 | 73 | 0 | 0.0 | 1.0 | 0.00 | 1.14 | 0.92 | 91 | 1016.3 |
| 20260831232520 | 73 | 0 | 0.0 | 1.0 | 0.00 | 1.14 | 0.92 | 91 | 1016.4 |
| 20260831232016 | 73 | 0 | 0.0 | 0.0 | 0.00 | 1.14 | 0.92 | 91 | 1016.3 |
| 20260831231538 | 73 | 0 | 0.0 | 0.0 | 0.00 | 1.14 | 0.92 | 92 | 1016.2 |
| 20260831231018 | 73 | 0 | 0.0 | 0.0 | 0.00 | 1.14 | 0.92 | 91 | 1016.4 |
| 20260831230519 | 73 | 0 | 0.0 | 0.0 | 0.00 | 1.14 | 0.92 | 91 | 1016.6 |
| 20260831230033 | 73 | 0 | 0.0 | 0.0 | 0.00 | 1.14 | 0.92 | 91 | 1016.3 |
| 20260831225516 | 73 | 0 | 0.0 | 0.0 | 0.00 | 1.16 | 0.92 | 91 | 1016.3 |
| 20260831225017 | 73 | 0 | 0.0 | 0.0 | 0.00 | 1.16 | 0.92 | 91 | 1016.3 |
| 20260831224536 | 73 | 0 | 0.0 | 0.0 | 0.00 | 1.16 | 0.92 | 91 | 1016.3 |
| 20260831224016 | 73 | 0 | 0.0 | 0.0 | 0.00 | 1.16 | 0.92 | 91 | 1016.3 |
| 20260831223516 | 73 | 0 | 0.0 | 0.0 | 0.00 | 1.16 | 0.92 | 91 | 1016.4 |
| 20260831223035 | 73 | 0 | 0.0 | 0.0 | 0.00 | 1.16 | 0.92 | 91 | 1016.3 |
| 20260831222517 | 73 | 0 | 0.0 | 0.0 | 0.00 | 1.16 | 0.92 | 90 | 1016.4 |
| 20260831222019 | 73 | 0 | 0.0 | 0.0 | 0.00 | 1.16 | 0.92 | 90 | 1016.4 |
| 20260831221537 | 73 | 0 | 0.0 | 0.0 | 0.00 | 1.16 | 0.92 | 90 | 1016.3 |
| 20260831221020 | 74 | 0 | 0.0 | 0.0 | 0.00 | 1.16 | 0.92 | 90 | 1016.3 |
| 20260831220517 | 74 | 0 | 0.0 | 0.0 | 0.00 | 1.16 | 0.92 | 90 | 1016.4 |
| 20260831220034 | 74 | 0 | 0.0 | 0.0 | 0.00 | 1.16 | 0.92 | 90 | 1016.5 |
| 20260831215519 | 74 | 0 | 0.0 | 0.0 | 0.00 | 1.27 | 0.92 | 90 | 1016.4 |
| 20260831215017 | 74 | 0 | 0.0 | 0.0 | 0.00 | 1.27 | 0.92 | 90 | 1016.4 |
| 20260831214537 | 74 | 0 | 0.0 | 0.0 | 0.00 | 1.27 | 0.92 | 90 | 1016.2 |
| 20260831214019 | 74 | 0 | 0.0 | 0.0 | 0.00 | 1.27 | 0.92 | 89 | 1016.3 |
| 20260831213518 | 74 | 0 | 0.0 | 0.0 | 0.00 | 1.27 | 0.92 | 89 | 1016.3 |
| 20260831213036 | 74 | 0 | 0.0 | 0.0 | 0.00 | 1.27 | 0.92 | 89 | 1016.3 |
| 20260831212518 | 74 | 0 | 0.0 | 0.0 | 0.00 | 1.27 | 0.92 | 89 | 1016.3 |
| 20260831212018 | 74 | 0 | 0.0 | 0.0 | 0.00 | 1.27 | 0.92 | 90 | 1016.4 |
| 20260831211533 | 74 | 0 | 0.0 | 0.0 | 0.00 | 1.27 | 0.92 | 91 | 1016.3 |
| 20260831211017 | 74 | 0 | 0.0 | 0.0 | 0.00 | 1.27 | 0.92 | 91 | 1016.4 |
| 20260831210519 | 74 | 0 | 0.0 | 0.0 | 0.00 | 1.27 | 0.92 | 91 | 1016.2 |
| 20260831210036 | 74 | 0 | 0.0 | 0.0 | 0.00 | 1.27 | 0.92 | 92 | 1016.1 |
| 20260831205518 | 74 | 0 | 0.0 | 0.0 | 0.00 | 1.36 | 0.92 | 94 | 1016.2 |
| 20260831205018 | 74 | 0 | 0.0 | 0.0 | 0.00 | 1.36 | 0.92 | 95 | 1016.1 |
| 20260831204534 | 73 | 0 | 0.0 | 0.0 | 0.00 | 1.36 | 0.92 | 94 | 1016.1 |
| 20260831204021 | 73 | 0 | 0.0 | 0.0 | 0.00 | 1.36 | 0.92 | 93 | 1016.3 |
| 20260831203519 | 73 | 0 | 0.0 | 0.0 | 0.00 | 1.36 | 0.92 | 93 | 1016.4 |
| 20260831203033 | 73 | 0 | 0.0 | 0.0 | 0.00 | 1.36 | 0.92 | 93 | 1016.4 |
| 20260831202516 | 72 | 0 | 0.0 | 0.0 | 0.00 | 1.36 | 0.92 | 93 | 1016.4 |
| 20260831202020 | 72 | 0 | 0.0 | 0.0 | 0.00 | 1.36 | 0.92 | 93 | 1016.8 |
| 20260831201535 | 72 | 0 | 0.0 | 0.0 | 0.00 | 1.36 | 0.92 | 93 | 1017.0 |
| 20260831201016 | 72 | 0 | 0.0 | 0.0 | 0.00 | 1.36 | 0.92 | 93 | 1016.9 |
| 20260831200517 | 72 | 0 | 0.0 | 0.0 | 0.00 | 1.36 | 0.92 | 93 | 1017.0 |
| 20260831200036 | 72 | 0 | 0.0 | 0.0 | 0.00 | 1.36 | 0.92 | 93 | 1016.9 |
| 20260831195519 | 72 | 0 | 0.0 | 0.0 | 0.01 | 1.47 | 0.92 | 93 | 1016.7 |
| 20260831195019 | 72 | 0 | 0.0 | 0.0 | 0.01 | 1.47 | 0.92 | 93 | 1016.8 |
| 20260831194533 | 72 | 0 | 0.0 | 0.0 | 0.01 | 1.47 | 0.92 | 93 | 1016.6 |
| 20260831194018 | 72 | 0 | 0.0 | 0.0 | 0.01 | 1.47 | 0.92 | 93 | 1016.7 |
| 20260831193518 | 72 | 0 | 0.0 | 0.0 | 0.01 | 1.47 | 0.92 | 92 | 1017.3 |
| 20260831193041 | 72 | 0 | 0.0 | 0.0 | 0.00 | 1.46 | 0.91 | 92 | 1017.6 |
| 20260831192516 | 72 | 0 | 0.0 | 0.0 | 0.00 | 1.46 | 0.91 | 92 | 1017.6 |
| 20260831192016 | 73 | 0 | 0.0 | 0.0 | 0.00 | 1.46 | 0.91 | 92 | 1016.9 |
| 20260831191532 | 73 | 0 | 0.0 | 0.0 | 0.00 | 1.46 | 0.91 | 92 | 1016.8 |
| 20260831191017 | 73 | 0 | 0.0 | 0.0 | 0.00 | 1.46 | 0.91 | 92 | 1017.1 |
| 20260831190520 | 73 | 0 | 0.0 | 0.0 | 0.00 | 1.46 | 0.91 | 92 | 1017.3 |
| 20260831190055 | 72 | 0 | 0.0 | 0.0 | 0.00 | 1.45 | 0.90 | 92 | 1017.4 |
| 20260831185518 | 72 | 0 | 0.0 | 0.0 | 0.00 | 1.51 | 0.90 | 92 | 1017.8 |
| 20260831185021 | 72 | 0 | 0.0 | 0.0 | 0.00 | 1.51 | 0.90 | 91 | 1018.0 |
| 20260831184534 | 72 | 0 | 0.0 | 0.0 | 0.00 | 1.51 | 0.90 | 91 | 1018.1 |
| 20260831184020 | 73 | 0 | 0.0 | 0.0 | 0.00 | 1.51 | 0.90 | 91 | 1018.1 |
| 20260831183519 | 73 | 0 | 0.0 | 0.0 | 0.00 | 1.51 | 0.90 | 92 | 1018.2 |
| 20260831183038 | 73 | 0 | 0.0 | 0.0 | 0.00 | 1.51 | 0.90 | 92 | 1018.2 |
| 20260831182516 | 73 | 0 | 0.0 | 0.0 | 0.00 | 1.51 | 0.90 | 92 | 1018.2 |
| 20260831182020 | 72 | 0 | 0.0 | 0.0 | 0.00 | 1.51 | 0.90 | 92 | 1018.0 |
| 20260831181544 | 72 | 0 | 0.0 | 0.0 | 0.00 | 1.51 | 0.90 | 92 | 1018.0 |
| 20260831181017 | 72 | 0 | 0.0 | 0.0 | 0.01 | 1.51 | 0.90 | 94 | 1018.0 |
| 20260831180517 | 72 | 0 | 0.0 | 0.0 | 0.01 | 1.51 | 0.90 | 94 | 1018.1 |
| 20260831180032 | 72 | 0 | 0.0 | 0.0 | 0.01 | 1.51 | 0.90 | 94 | 1018.2 |
| 20260831175516 | 72 | 0 | 0.0 | 0.0 | 0.01 | 1.65 | 0.90 | 93 | 1018.3 |
| 20260831175016 | 71 | 0 | 0.0 | 0.0 | 0.01 | 1.65 | 0.90 | 94 | 1018.1 |
| 20260831174537 | 71 | 0 | 0.0 | 0.0 | 0.01 | 1.65 | 0.90 | 94 | 1018.1 |
| 20260831174018 | 71 | 0 | 0.0 | 0.0 | 0.01 | 1.64 | 0.89 | 94 | 1018.1 |
| 20260831173517 | 71 | 0 | 0.0 | 0.0 | 0.02 | 1.64 | 0.89 | 93 | 1018.1 |
| 20260831173034 | 71 | 0 | 0.0 | 0.0 | 0.06 | 1.64 | 0.89 | 93 | 1018.2 |
| 20260831172519 | 71 | 0 | 0.0 | 0.0 | 0.07 | 1.64 | 0.89 | 93 | 1018.2 |
| 20260831172019 | 71 | 0 | 0.0 | 0.0 | 0.07 | 1.64 | 0.89 | 93 | 1018.3 |
| 20260831171532 | 71 | 0 | 0.0 | 0.0 | 0.07 | 1.64 | 0.89 | 93 | 1018.4 |
| 20260831171017 | 71 | 0 | 0.0 | 0.0 | 0.07 | 1.63 | 0.88 | 93 | 1018.5 |
| 20260831170517 | 71 | 0 | 0.0 | 0.0 | 0.07 | 1.63 | 0.88 | 93 | 1018.4 |
| 20260831170035 | 71 | 0 | 0.0 | 0.0 | 0.12 | 1.63 | 0.88 | 93 | 1018.5 |
| 20260831165517 | 71 | 0 | 0.0 | 0.0 | 0.14 | 1.92 | 0.88 | 93 | 1018.5 |
| 20260831165016 | 71 | 0 | 0.0 | 0.0 | 0.16 | 1.92 | 0.88 | 92 | 1018.7 |
| 20260831164549 | 71 | 0 | 0.0 | 0.0 | 0.18 | 1.92 | 0.88 | 92 | 1018.7 |
| 20260831164017 | 71 | 0 | 0.0 | 0.0 | 0.18 | 1.91 | 0.88 | 92 | 1018.8 |
| 20260831163521 | 71 | 0 | 0.0 | 0.0 | 0.15 | 1.88 | 0.85 | 92 | 1018.9 |
| 20260831163038 | 71 | 0 | 0.0 | 0.0 | 0.13 | 1.86 | 0.83 | 92 | 1019.2 |
| 20260831162520 | 71 | 0 | 0.0 | 0.0 | 0.13 | 1.85 | 0.82 | 92 | 1019.2 |
| 20260831162017 | 72 | 0 | 0.0 | 0.0 | 0.12 | 1.85 | 0.81 | 91 | 1019.2 |
| 20260831161536 | 72 | 0 | 0.0 | 0.0 | 0.12 | 1.85 | 0.81 | 91 | 1019.2 |
| 20260831161018 | 72 | 0 | 0.0 | 0.0 | 0.12 | 1.85 | 0.81 | 92 | 1019.2 |
| 20260831160519 | 73 | 0 | 0.0 | 0.0 | 0.11 | 1.83 | 0.80 | 92 | 1019.2 |
| 20260831160035 | 73 | 0 | 0.0 | 0.0 | 0.06 | 1.78 | 0.75 | 92 | 1019.3 |
| 20260831155518 | 73 | 0 | 0.0 | 0.0 | 0.04 | 1.81 | 0.74 | 92 | 1019.0 |
| 20260831155018 | 73 | 0 | 0.0 | 0.0 | 0.02 | 1.79 | 0.71 | 91 | 1018.9 |
| 20260831154613 | 73 | 0 | 0.0 | 0.0 | 0.01 | 1.78 | 0.70 | 92 | 1018.6 |
| 20260831154019 | 73 | 0 | 0.0 | 0.0 | 0.00 | 1.77 | 0.70 | 91 | 1018.6 |
| 20260831153515 | 73 | 0 | 0.0 | 0.0 | 0.00 | 1.77 | 0.70 | 91 | 1018.6 |
| 20260831153050 | 73 | 0 | 0.0 | 0.0 | 0.00 | 1.77 | 0.69 | 90 | 1018.5 |
| 20260831152519 | 73 | 0 | 0.0 | 0.0 | 0.00 | 1.77 | 0.69 | 90 | 1018.3 |
| 20260831152019 | 74 | 0 | 0.0 | 0.0 | 0.00 | 1.77 | 0.69 | 89 | 1018.3 |
| 20260831151543 | 74 | 0 | 0.0 | 0.0 | 0.00 | 1.77 | 0.69 | 89 | 1018.3 |
| 20260831151018 | 74 | 0 | 0.0 | 0.0 | 0.00 | 1.77 | 0.69 | 89 | 1018.1 |
| 20260831150519 | 74 | 0 | 0.0 | 0.0 | 0.00 | 1.77 | 0.69 | 89 | 1018.0 |
| 20260831150034 | 74 | 0 | 0.0 | 0.0 | 0.00 | 1.77 | 0.69 | 90 | 1018.0 |
| 20260831145516 | 74 | 0 | 0.0 | 0.0 | 0.00 | 1.78 | 0.69 | 91 | 1017.9 |
| 20260831145022 | 73 | 0 | 0.0 | 0.0 | 0.00 | 1.78 | 0.69 | 91 | 1017.9 |
| 20260831144534 | 73 | 0 | 0.0 | 0.0 | 0.00 | 1.78 | 0.69 | 93 | 1017.8 |
| 20260831144017 | 73 | 0 | 0.0 | 0.0 | 0.00 | 1.78 | 0.69 | 93 | 1017.8 |
| 20260831143522 | 73 | 0 | 0.0 | 1.0 | 0.00 | 1.78 | 0.69 | 94 | 1017.9 |
| 20260831143039 | 72 | 0 | 0.0 | 1.0 | 0.00 | 1.78 | 0.69 | 94 | 1017.9 |
| 20260831142518 | 72 | 0 | 0.0 | 1.0 | 0.00 | 1.78 | 0.69 | 94 | 1017.8 |
| 20260831142020 | 72 | 0 | 0.0 | 0.0 | 0.00 | 1.78 | 0.69 | 95 | 1017.7 |
| 20260831141534 | 72 | 0 | 0.0 | 0.0 | 0.00 | 1.78 | 0.69 | 95 | 1017.9 |
| 20260831141017 | 72 | 0 | 0.0 | 0.0 | 0.00 | 1.78 | 0.69 | 95 | 1018.0 |
| 20260831140522 | 72 | 0 | 0.0 | 0.0 | 0.00 | 1.78 | 0.69 | 95 | 1017.8 |
| 20260831140037 | 71 | 0 | 0.0 | 0.0 | 0.00 | 1.78 | 0.69 | 95 | 1017.8 |
| 20260831135517 | 71 | 0 | 0.0 | 0.0 | 0.00 | 1.84 | 0.69 | 96 | 1017.7 |
| 20260831135018 | 71 | 0 | 0.0 | 0.0 | 0.00 | 1.84 | 0.69 | 96 | 1017.5 |
| 20260831134534 | 71 | 0 | 0.0 | 1.0 | 0.00 | 1.84 | 0.69 | 96 | 1017.3 |
| 20260831134016 | 71 | 0 | 0.0 | 1.0 | 0.00 | 1.84 | 0.69 | 96 | 1017.5 |
| 20260831133517 | 71 | 0 | 0.0 | 2.0 | 0.00 | 1.84 | 0.69 | 96 | 1017.3 |
| 20260831133036 | 70 | 0 | 0.0 | 2.0 | 0.00 | 1.84 | 0.69 | 96 | 1017.5 |
| 20260831132517 | 70 | 0 | 0.0 | 0.0 | 0.00 | 1.84 | 0.69 | 96 | 1017.4 |
| 20260831132020 | 70 | 0 | 0.0 | 0.0 | 0.00 | 1.84 | 0.69 | 95 | 1017.6 |
| 20260831131542 | 69 | 0 | 0.0 | 0.0 | 0.01 | 1.84 | 0.69 | 95 | 1017.5 |
| 20260831131021 | 69 | 0 | 0.0 | 0.0 | 0.01 | 1.84 | 0.69 | 95 | 1017.4 |
| 20260831130519 | 69 | 0 | 0.0 | 0.0 | 0.01 | 1.84 | 0.69 | 95 | 1017.7 |
| 20260831130034 | 69 | 0 | 0.0 | 0.0 | 0.01 | 1.84 | 0.69 | 95 | 1017.6 |
| 20260831125517 | 69 | 0 | 0.0 | 0.0 | 0.01 | 1.92 | 0.69 | 95 | 1017.6 |
| 20260831125019 | 68 | 0 | 0.0 | 0.0 | 0.01 | 1.92 | 0.69 | 95 | 1017.7 |